contact:dominique.lefevre@mio.osupytheas.fr, maurice.libes@osupytheas.fr, didier.mallarino@osupytheas.fr
Project:EMSO http://www.emso-fr.org/EMSO-France
Depth: 2436.0 m
Title:EMSO Ligure Ouest : Data MII capteur AQUADOPP
Date,Latitude,Longitude,X_East,Y_North,Z_Up,Amplitude_X,Amplitude_Y,Amplitude_Z,Batterie,SoundSpeed,Heading,Pitch,Roll,Pressure,TIS,Speed,Direction
, degrees North, degrees East, m.s-1, m.s-1,m.s-1, 1, 1, 1, Volt, m.s-1, degree, degree, degree, dbar, degree_C, m.s-1, degree
2022-05-25T00:04:02,42.805,6.029,0.032,-0.039,-0.007,106.0,104.0,102.0,13.3,1505.2,328.8,-0.8,1.8,2470.887,13.28,0.05,140.6
2022-05-25T00:07:03,42.805,6.029,0.044,-0.032,-0.012,105.0,105.0,103.0,13.4,1505.2,322.4,-0.7,1.8,2470.901,13.28,0.054,126.0
2022-05-25T00:10:03,42.805,6.029,0.052,-0.026,0.012,104.0,104.0,103.0,13.4,1505.2,329.5,-0.8,1.8,2470.896,13.28,0.058,116.6
2022-05-25T00:13:03,42.805,6.029,0.038,-0.018,-0.018,105.0,105.0,102.0,13.4,1505.2,324.5,-0.8,1.8,2470.911,13.28,0.042,115.3
2022-05-25T00:16:03,42.805,6.029,0.027,-0.051,-0.023,104.0,104.0,103.0,13.4,1505.2,324.0,-0.7,1.8,2470.86,13.28,0.057,152.1
2022-05-25T00:19:03,42.805,6.029,0.026,-0.048,-0.001,105.0,104.0,102.0,13.4,1505.2,328.8,-0.8,1.9,2470.889,13.28,0.054,151.6
2022-05-25T00:22:03,42.805,6.029,0.041,-0.027,-0.024,104.0,104.0,102.0,13.4,1505.2,322.0,-0.8,1.8,2470.896,13.28,0.049,123.4
2022-05-25T00:25:03,42.805,6.029,0.029,-0.04,-0.035,103.0,105.0,102.0,13.3,1505.2,322.6,-0.7,1.8,2470.924,13.28,0.049,144.1
2022-05-25T00:28:03,42.805,6.029,0.026,-0.032,0.002,104.0,104.0,102.0,13.4,1505.2,325.0,-0.8,1.8,2470.879,13.28,0.041,140.9
2022-05-25T00:31:03,42.805,6.029,0.02,-0.034,-0.013,104.0,104.0,102.0,13.4,1505.2,327.2,-0.7,1.8,2470.905,13.28,0.039,149.5
2022-05-25T00:34:03,42.805,6.029,0.024,-0.014,0.008,104.0,103.0,102.0,13.4,1505.2,328.7,-0.8,1.8,2470.879,13.28,0.027,120.3
2022-05-25T00:37:03,42.805,6.029,0.026,-0.019,0.008,104.0,103.0,103.0,13.4,1505.2,324.6,-0.8,1.8,2470.943,13.28,0.032,126.2
2022-05-25T00:40:03,42.805,6.029,0.038,-0.034,-0.016,104.0,103.0,103.0,13.4,1505.2,322.8,-0.8,1.8,2470.878,13.28,0.05,131.8
2022-05-25T00:43:03,42.805,6.029,0.043,-0.034,-0.015,104.0,104.0,102.0,13.4,1505.2,323.1,-0.8,1.8,2470.925,13.28,0.054,128.3
2022-05-25T00:46:03,42.805,6.029,0.017,-0.034,-0.033,105.0,104.0,103.0,13.4,1505.2,332.0,-0.8,1.8,2470.915,13.28,0.038,153.4
2022-05-25T00:49:03,42.805,6.029,0.033,-0.032,0.019,104.0,104.0,102.0,13.4,1505.2,328.7,-0.8,1.8,2470.899,13.28,0.045,134.1
2022-05-25T00:52:03,42.805,6.029,0.046,-0.05,-0.003,104.0,104.0,102.0,13.3,1505.2,333.2,-0.7,1.8,2470.887,13.28,0.067,137.4
2022-05-25T00:55:03,42.805,6.029,0.009,-0.03,-0.009,104.0,103.0,102.0,13.3,1505.2,321.5,-0.8,1.8,2470.893,13.28,0.031,163.3
2022-05-25T00:58:03,42.805,6.029,0.03,-0.026,-0.012,105.0,105.0,103.0,13.4,1505.2,327.7,-0.8,1.8,2470.946,13.28,0.039,130.9
2022-05-25T01:04:02,42.805,6.029,0.036,-0.054,-0.028,105.0,106.0,102.0,13.4,1505.2,332.8,-0.7,1.8,2470.952,13.28,0.064,146.3
2022-05-25T01:07:03,42.805,6.029,0.046,-0.053,-0.022,104.0,104.0,102.0,13.4,1505.2,326.0,-0.8,1.8,2470.934,13.28,0.07,139.0
2022-05-25T01:10:03,42.805,6.029,0.015,-0.032,-0.015,103.0,105.0,102.0,13.4,1505.2,330.1,-0.8,1.8,2470.964,13.28,0.035,154.9
2022-05-25T01:13:03,42.805,6.029,0.025,-0.042,-0.039,105.0,104.0,102.0,13.4,1505.2,331.5,-0.7,1.8,2470.933,13.28,0.048,149.2
2022-05-25T01:16:03,42.805,6.029,0.044,-0.029,-0.019,104.0,104.0,102.0,13.4,1505.2,327.3,-0.8,1.9,2470.918,13.28,0.052,123.4
2022-05-25T01:19:03,42.805,6.029,0.043,-0.04,-0.015,103.0,103.0,102.0,13.4,1505.2,333.0,-0.8,1.8,2470.95,13.28,0.058,132.9
2022-05-25T01:22:03,42.805,6.029,0.029,-0.047,-0.015,104.0,103.0,102.0,13.3,1505.2,322.3,-0.7,1.8,2470.913,13.28,0.055,148.3
2022-05-25T01:25:03,42.805,6.029,0.049,-0.03,-0.002,106.0,103.0,101.0,13.3,1505.2,322.7,-0.7,1.8,2470.942,13.28,0.057,121.5
2022-05-25T01:28:03,42.805,6.029,0.042,-0.044,-0.019,104.0,103.0,102.0,13.3,1505.2,329.4,-0.7,1.9,2470.955,13.28,0.06,136.3
2022-05-25T01:31:03,42.805,6.029,0.033,-0.041,0.004,103.0,102.0,103.0,13.3,1505.2,332.3,-0.8,1.8,2470.919,13.28,0.052,141.2
2022-05-25T01:34:03,42.805,6.029,0.042,-0.033,-0.03,104.0,101.0,102.0,13.4,1505.2,324.2,-0.8,1.8,2470.912,13.28,0.053,128.2
2022-05-25T01:37:02,42.805,6.029,0.042,-0.033,-0.008,105.0,103.0,103.0,13.4,1505.2,322.0,-0.8,1.8,2470.966,13.28,0.053,128.2
2022-05-25T01:40:03,42.805,6.029,0.034,-0.036,-0.001,104.0,103.0,101.0,13.4,1505.2,329.5,-0.8,1.9,2470.947,13.28,0.049,136.6
2022-05-25T01:43:03,42.805,6.029,0.026,-0.048,-0.065,103.0,103.0,101.0,13.3,1505.2,333.2,-0.7,1.8,2470.91,13.28,0.054,151.6
2022-05-25T01:46:03,42.805,6.029,0.055,-0.04,-0.01,103.0,103.0,102.0,13.4,1505.2,320.8,-0.8,1.8,2470.944,13.28,0.068,126.0
2022-05-25T01:49:03,42.805,6.029,0.025,-0.047,-0.058,104.0,103.0,101.0,13.4,1505.2,332.3,-0.7,1.8,2470.948,13.28,0.053,152.0
2022-05-25T01:52:03,42.805,6.029,0.03,-0.044,-0.004,104.0,104.0,102.0,13.3,1505.2,329.4,-0.7,1.9,2470.961,13.28,0.053,145.7
2022-05-25T01:55:03,42.805,6.029,0.025,-0.049,-0.05,104.0,103.0,102.0,13.4,1505.2,329.2,-0.8,1.8,2470.92,13.28,0.055,153.0
2022-05-25T01:58:03,42.805,6.029,0.04,-0.026,-0.038,103.0,102.0,102.0,13.3,1505.2,323.6,-0.7,1.8,2470.936,13.28,0.047,123.0
2022-05-25T02:04:02,42.805,6.029,-0.01,-0.031,-0.026,105.0,102.0,102.0,13.4,1505.2,328.0,-0.7,1.8,2470.956,13.28,0.032,197.9
2022-05-25T02:07:03,42.805,6.029,0.025,-0.031,-0.002,103.0,103.0,101.0,13.4,1505.2,328.3,-0.7,1.8,2471.0,13.28,0.039,141.1
2022-05-25T02:10:03,42.805,6.029,0.005,-0.027,-0.022,105.0,103.0,101.0,13.3,1505.2,332.0,-0.8,1.8,2470.976,13.28,0.027,169.5
2022-05-25T02:13:03,42.805,6.029,0.022,-0.044,-0.019,102.0,103.0,101.0,13.4,1505.2,329.6,-0.7,1.9,2470.981,13.28,0.049,153.4
2022-05-25T02:16:03,42.805,6.029,0.041,-0.044,0.0,103.0,102.0,102.0,13.3,1505.2,331.9,-0.8,1.8,2470.963,13.28,0.06,137.0
2022-05-25T02:19:03,42.805,6.029,0.017,-0.043,-0.04,103.0,103.0,102.0,13.4,1505.2,322.3,-0.8,1.8,2470.986,13.28,0.046,158.4
2022-05-25T02:22:03,42.805,6.029,0.031,-0.021,-0.019,103.0,104.0,102.0,13.4,1505.2,329.0,-0.8,1.8,2470.962,13.28,0.037,124.1
2022-05-25T02:25:03,42.805,6.029,0.03,-0.026,-0.015,104.0,104.0,101.0,13.3,1505.2,331.5,-0.8,1.8,2470.973,13.28,0.039,130.9
2022-05-25T02:28:03,42.805,6.029,0.03,-0.04,-0.042,103.0,102.0,102.0,13.4,1505.2,331.9,-0.7,1.8,2470.966,13.28,0.05,143.1
2022-05-25T02:31:03,42.805,6.029,0.037,-0.034,-0.053,103.0,104.0,101.0,13.4,1505.2,325.3,-0.7,1.8,2470.961,13.28,0.05,132.6
2022-05-25T02:34:03,42.805,6.029,0.02,-0.047,-0.045,104.0,102.0,101.0,13.4,1505.2,328.7,-0.7,1.9,2470.947,13.28,0.051,157.0
2022-05-25T02:37:03,42.805,6.029,0.032,-0.029,0.0,103.0,102.0,101.0,13.4,1505.2,325.4,-0.8,1.8,2470.947,13.28,0.043,132.2
2022-05-25T02:40:03,42.805,6.029,0.039,-0.034,-0.029,103.0,103.0,102.0,13.4,1505.2,328.9,-0.8,1.8,2470.96,13.28,0.051,131.1
2022-05-25T02:43:03,42.805,6.029,0.022,-0.034,-0.024,104.0,102.0,101.0,13.3,1505.2,325.3,-0.7,1.8,2470.948,13.28,0.04,147.1
2022-05-25T02:46:03,42.805,6.029,0.021,-0.042,-0.027,104.0,102.0,101.0,13.4,1505.2,328.1,-0.7,1.8,2470.952,13.28,0.046,153.4
2022-05-25T02:49:03,42.805,6.029,0.017,-0.051,-0.033,103.0,102.0,100.0,13.4,1505.2,329.5,-0.7,1.8,2470.942,13.28,0.053,161.6
2022-05-25T02:52:03,42.805,6.029,0.042,-0.021,-0.039,104.0,102.0,102.0,13.3,1505.2,328.7,-0.8,1.9,2470.94,13.28,0.046,116.6
2022-05-25T02:55:03,42.805,6.029,0.042,-0.053,-0.029,103.0,103.0,102.0,13.4,1505.2,328.9,-0.8,1.9,2470.959,13.28,0.067,141.6
2022-05-25T02:58:03,42.805,6.029,0.037,-0.035,-0.032,104.0,103.0,101.0,13.4,1505.2,327.3,-0.8,1.8,2470.976,13.28,0.05,133.4
2022-05-25T03:04:02,42.805,6.029,0.047,-0.035,0.0,103.0,104.0,101.0,13.4,1505.2,324.6,-0.8,1.8,2470.99,13.28,0.058,126.7
2022-05-25T03:07:03,42.805,6.029,0.033,-0.022,-0.03,103.0,103.0,101.0,13.4,1505.2,322.7,-0.8,1.8,2471.019,13.28,0.039,123.7
2022-05-25T03:10:03,42.805,6.029,0.033,-0.043,-0.008,103.0,102.0,101.0,13.4,1505.2,327.5,-0.7,1.8,2470.979,13.28,0.054,142.5
2022-05-25T03:13:03,42.805,6.029,0.044,-0.045,0.016,104.0,102.0,103.0,13.4,1505.2,329.0,-0.8,1.8,2470.952,13.28,0.062,135.6
2022-05-25T03:16:03,42.805,6.029,0.047,-0.036,-0.024,103.0,103.0,101.0,13.4,1505.2,326.1,-0.8,1.8,2471.017,13.28,0.059,127.5
2022-05-25T03:19:03,42.805,6.029,0.062,-0.044,-0.022,103.0,103.0,101.0,13.4,1505.2,328.8,-0.7,1.8,2470.985,13.28,0.076,125.4
2022-05-25T03:22:03,42.805,6.029,0.026,-0.023,-0.02,103.0,102.0,102.0,13.4,1505.2,326.7,-0.8,1.8,2470.955,13.28,0.034,131.5
2022-05-25T03:25:03,42.805,6.029,0.057,-0.033,-0.035,101.0,103.0,102.0,13.4,1505.2,322.9,-0.8,1.8,2471.002,13.28,0.065,120.1
2022-05-25T03:28:03,42.805,6.029,0.038,-0.043,0.005,103.0,103.0,102.0,13.3,1505.2,330.3,-0.8,1.8,2470.978,13.28,0.057,138.5
2022-05-25T03:31:03,42.805,6.029,0.025,-0.032,-0.016,104.0,103.0,102.0,13.3,1505.2,324.2,-0.7,1.8,2470.96,13.28,0.04,142.0
2022-05-25T03:34:03,42.805,6.029,0.038,-0.015,0.006,104.0,102.0,102.0,13.4,1505.2,324.3,-0.8,1.8,2471.011,13.28,0.04,111.5
2022-05-25T03:37:03,42.805,6.029,0.052,-0.043,0.002,105.0,104.0,102.0,13.3,1505.2,325.6,-0.7,1.8,2470.983,13.28,0.067,129.6
2022-05-25T03:40:03,42.805,6.029,0.021,-0.035,0.006,102.0,105.0,101.0,13.3,1505.2,331.9,-0.8,1.8,2470.978,13.28,0.04,149.0
2022-05-25T03:43:03,42.805,6.029,0.027,-0.044,-0.049,104.0,103.0,102.0,13.3,1505.2,325.3,-0.8,1.8,2470.946,13.28,0.051,148.5
2022-05-25T03:46:03,42.805,6.029,0.032,-0.024,-0.033,103.0,103.0,102.0,13.4,1505.2,329.2,-0.8,1.8,2470.951,13.28,0.04,126.9
2022-05-25T03:49:03,42.805,6.029,0.041,-0.014,0.001,105.0,103.0,101.0,13.3,1505.2,323.7,-0.8,1.8,2470.958,13.28,0.043,108.9
2022-05-25T03:52:03,42.805,6.029,0.042,-0.028,-0.01,104.0,104.0,102.0,13.4,1505.2,327.4,-0.8,1.8,2470.984,13.28,0.05,123.7
2022-05-25T03:55:03,42.805,6.029,0.037,-0.051,-0.026,103.0,103.0,102.0,13.3,1505.2,326.7,-0.8,1.9,2470.937,13.28,0.063,144.0
2022-05-25T03:58:03,42.805,6.029,0.028,-0.022,-0.015,104.0,103.0,101.0,13.3,1505.2,324.4,-0.7,1.8,2470.991,13.28,0.035,128.2
2022-05-25T04:04:02,42.805,6.029,0.024,-0.036,-0.042,104.0,103.0,101.0,13.3,1505.2,325.7,-0.8,1.8,2471.032,13.28,0.043,146.3
2022-05-25T04:07:03,42.805,6.029,0.041,-0.031,0.003,105.0,103.0,102.0,13.4,1505.2,322.7,-0.8,1.8,2471.023,13.28,0.051,127.1
2022-05-25T04:10:03,42.805,6.029,0.037,-0.036,-0.016,104.0,103.0,102.0,13.3,1505.2,328.7,-0.8,1.8,2471.026,13.28,0.051,134.2
2022-05-25T04:13:03,42.805,6.029,0.037,-0.035,-0.018,105.0,103.0,101.0,13.3,1505.2,325.1,-0.8,1.9,2470.998,13.28,0.05,133.4
2022-05-25T04:16:03,42.805,6.029,0.031,-0.03,-0.023,104.0,103.0,102.0,13.3,1505.2,332.6,-0.8,1.8,2470.992,13.28,0.043,134.1
2022-05-25T04:19:03,42.805,6.029,0.033,-0.036,-0.005,104.0,103.0,102.0,13.3,1505.2,322.6,-0.8,1.8,2470.954,13.28,0.048,137.5
2022-05-25T04:22:03,42.805,6.029,0.027,-0.046,-0.007,103.0,103.0,102.0,13.4,1505.2,325.6,-0.7,1.8,2471.009,13.28,0.053,149.6
2022-05-25T04:25:03,42.805,6.029,0.045,-0.041,0.01,104.0,103.0,101.0,13.4,1505.2,331.5,-0.7,1.8,2470.993,13.28,0.06,132.3
2022-05-25T04:28:03,42.805,6.029,0.05,-0.022,-0.015,104.0,104.0,103.0,13.3,1505.2,330.4,-0.8,1.8,2470.986,13.28,0.054,113.7
2022-05-25T04:31:03,42.805,6.029,0.03,-0.036,-0.016,104.0,103.0,102.0,13.3,1505.2,328.9,-0.8,1.8,2471.006,13.28,0.046,140.2
2022-05-25T04:34:03,42.805,6.029,0.047,-0.054,-0.008,103.0,105.0,102.0,13.4,1505.2,325.4,-0.8,1.8,2471.009,13.28,0.071,139.0
2022-05-25T04:37:03,42.805,6.029,0.056,-0.027,-0.023,105.0,103.0,101.0,13.4,1505.2,321.1,-0.8,1.8,2471.019,13.28,0.062,115.7
2022-05-25T04:40:03,42.805,6.029,0.054,-0.039,-0.005,103.0,103.0,101.0,13.3,1505.2,324.0,-0.7,1.8,2470.977,13.28,0.066,125.8
2022-05-25T04:43:03,42.805,6.029,0.042,-0.026,0.007,103.0,103.0,102.0,13.4,1505.2,331.2,-0.8,1.8,2470.971,13.28,0.049,121.8
2022-05-25T04:46:03,42.805,6.029,0.052,-0.044,-0.026,104.0,104.0,102.0,13.3,1505.2,331.5,-0.8,1.8,2470.945,13.28,0.068,130.2
2022-05-25T04:49:03,42.805,6.029,0.022,-0.047,0.011,103.0,105.0,103.0,13.4,1505.2,327.8,-0.8,1.8,2470.957,13.28,0.051,154.9
2022-05-25T04:52:03,42.805,6.029,0.027,-0.027,-0.017,105.0,104.0,101.0,13.4,1505.2,324.0,-0.8,1.8,2470.971,13.28,0.038,135.0
2022-05-25T04:55:03,42.805,6.029,0.044,-0.048,-0.023,103.0,105.0,100.0,13.3,1505.2,326.0,-0.8,1.8,2470.998,13.28,0.065,137.5
2022-05-25T04:58:03,42.805,6.029,0.047,-0.029,-0.035,104.0,104.0,102.0,13.4,1505.2,321.8,-0.7,1.8,2471.001,13.28,0.055,121.7
2022-05-25T05:04:02,42.805,6.029,0.041,-0.022,-0.027,104.0,104.0,102.0,13.3,1505.2,328.6,-0.8,1.8,2471.019,13.28,0.046,118.2
2022-05-25T05:07:03,42.805,6.029,0.043,-0.031,0.001,104.0,105.0,103.0,13.4,1505.2,322.5,-0.8,1.9,2471.012,13.28,0.053,125.8
2022-05-25T05:10:03,42.805,6.029,0.039,-0.023,-0.005,104.0,103.0,103.0,13.3,1505.2,325.3,-0.8,1.8,2471.001,13.28,0.045,120.5
2022-05-25T05:13:03,42.805,6.029,0.045,-0.034,-0.025,104.0,103.0,103.0,13.4,1505.2,330.4,-0.7,1.9,2471.012,13.28,0.056,127.1
2022-05-25T05:16:03,42.805,6.029,0.054,-0.039,-0.049,104.0,104.0,102.0,13.4,1505.2,322.6,-0.8,1.8,2470.98,13.28,0.066,125.8
2022-05-25T05:19:03,42.805,6.029,0.036,-0.032,0.011,106.0,105.0,102.0,13.4,1505.2,323.1,-0.8,1.8,2470.947,13.28,0.048,131.6
2022-05-25T05:22:03,42.805,6.029,0.035,-0.034,-0.033,103.0,102.0,103.0,13.4,1505.2,328.7,-0.7,1.9,2470.99,13.28,0.048,134.2
2022-05-25T05:25:03,42.805,6.029,0.055,-0.04,-0.023,103.0,102.0,103.0,13.4,1505.2,325.1,-0.8,1.8,2470.971,13.28,0.068,126.0
2022-05-25T05:28:03,42.805,6.029,0.03,-0.055,-0.022,104.0,102.0,102.0,13.4,1505.2,329.5,-0.8,1.8,2470.995,13.28,0.062,151.4
2022-05-25T05:31:03,42.805,6.029,0.054,-0.045,-0.02,104.0,103.0,102.0,13.4,1505.2,324.8,-0.7,1.8,2470.94,13.28,0.07,129.8
2022-05-25T05:34:03,42.805,6.029,0.044,-0.049,-0.029,104.0,103.0,102.0,13.4,1505.2,321.7,-0.8,1.8,2470.965,13.28,0.065,138.1
2022-05-25T05:37:03,42.805,6.029,0.026,-0.041,-0.038,103.0,103.0,103.0,13.3,1505.2,327.7,-0.8,1.8,2471.027,13.28,0.048,147.6
2022-05-25T05:40:03,42.805,6.029,0.03,-0.052,-0.033,102.0,104.0,101.0,13.4,1505.2,331.5,-0.8,1.8,2470.997,13.28,0.06,150.0
2022-05-25T05:43:03,42.805,6.029,0.044,-0.03,0.014,104.0,103.0,101.0,13.4,1505.2,321.4,-0.8,1.8,2470.944,13.28,0.053,124.3
2022-05-25T05:46:03,42.805,6.029,0.032,-0.042,-0.024,104.0,104.0,103.0,13.3,1505.2,325.6,-0.7,1.8,2470.96,13.28,0.052,142.7
2022-05-25T05:49:03,42.805,6.029,0.044,-0.036,-0.001,105.0,104.0,101.0,13.4,1505.2,324.2,-0.8,1.8,2470.947,13.28,0.056,129.3
2022-05-25T05:52:03,42.805,6.029,0.055,-0.055,-0.016,103.0,103.0,102.0,13.4,1505.2,329.3,-0.8,1.8,2470.918,13.28,0.077,135.0
2022-05-25T05:55:03,42.805,6.029,0.027,-0.034,-0.03,104.0,104.0,102.0,13.4,1505.2,324.8,-0.8,1.8,2470.965,13.28,0.043,141.5
2022-05-25T05:58:03,42.805,6.029,0.058,-0.029,-0.033,103.0,103.0,102.0,13.4,1505.2,325.2,-0.8,1.8,2470.988,13.28,0.064,116.6
2022-05-25T06:04:03,42.805,6.029,0.031,-0.019,-0.007,104.0,103.0,103.0,13.4,1505.2,327.2,-0.8,1.8,2470.957,13.28,0.036,121.5
2022-05-25T06:07:03,42.805,6.029,0.036,-0.026,-0.015,105.0,102.0,103.0,13.3,1505.2,326.3,-0.8,1.8,2470.99,13.28,0.044,125.8
2022-05-25T06:10:03,42.805,6.029,0.067,-0.043,-0.007,105.0,103.0,102.0,13.4,1505.2,323.8,-0.8,1.8,2470.928,13.28,0.079,122.7
2022-05-25T06:13:03,42.805,6.029,0.029,-0.033,-0.052,104.0,104.0,102.0,13.4,1505.2,330.6,-0.8,1.8,2470.958,13.28,0.043,138.7
2022-05-25T06:16:03,42.805,6.029,0.029,-0.048,-0.035,105.0,103.0,101.0,13.4,1505.2,330.4,-0.8,1.8,2470.983,13.28,0.056,148.9
2022-05-25T06:19:03,42.805,6.029,0.062,-0.043,-0.015,104.0,103.0,102.0,13.3,1505.2,324.2,-0.8,1.8,2470.971,13.28,0.075,124.7
2022-05-25T06:22:03,42.805,6.029,0.042,-0.035,-0.015,106.0,104.0,102.0,13.4,1505.2,327.8,-0.8,1.8,2470.96,13.28,0.054,129.8
2022-05-25T06:25:03,42.805,6.029,0.034,-0.042,-0.046,104.0,104.0,103.0,13.4,1505.2,330.1,-0.8,1.8,2470.941,13.28,0.054,141.0
2022-05-25T06:28:03,42.805,6.029,0.051,-0.024,-0.021,105.0,105.0,103.0,13.4,1505.2,326.8,-0.8,1.8,2470.931,13.28,0.056,115.2
2022-05-25T06:31:03,42.805,6.029,0.047,-0.043,-0.019,104.0,105.0,103.0,13.4,1505.2,324.9,-0.8,1.8,2470.97,13.28,0.063,132.5
2022-05-25T06:34:03,42.805,6.029,0.062,-0.053,-0.012,105.0,104.0,103.0,13.4,1505.2,321.0,-0.7,1.8,2470.939,13.28,0.081,130.5
2022-05-25T06:37:03,42.805,6.029,0.04,-0.048,-0.002,105.0,104.0,103.0,13.4,1505.2,328.2,-0.7,1.8,2470.951,13.28,0.062,140.2
2022-05-25T06:40:03,42.805,6.029,0.04,-0.038,-0.026,104.0,105.0,103.0,13.4,1505.2,324.4,-0.7,1.8,2470.942,13.28,0.055,133.5
2022-05-25T06:43:03,42.805,6.029,0.047,-0.033,-0.009,106.0,105.0,103.0,13.4,1505.2,328.3,-0.7,1.8,2470.93,13.28,0.057,125.1
2022-05-25T06:46:03,42.805,6.029,0.055,-0.04,-0.016,105.0,105.0,102.0,13.4,1505.2,324.9,-0.7,1.8,2470.94,13.28,0.068,126.0
2022-05-25T06:49:03,42.805,6.029,0.038,-0.049,0.01,105.0,105.0,103.0,13.4,1505.2,321.1,-0.8,1.8,2470.961,13.28,0.062,142.2
2022-05-25T06:52:03,42.805,6.029,0.027,-0.045,-0.021,107.0,105.0,104.0,13.4,1505.2,329.4,-0.7,1.8,2470.921,13.28,0.052,149.0
2022-05-25T06:55:03,42.805,6.029,0.034,-0.053,-0.016,105.0,105.0,103.0,13.4,1505.2,327.3,-0.8,1.8,2470.926,13.28,0.062,147.3
2022-05-25T06:58:03,42.805,6.029,0.024,-0.04,-0.011,105.0,106.0,103.0,13.4,1505.2,324.7,-0.8,1.8,2470.945,13.28,0.046,149.0
2022-05-25T07:04:03,42.805,6.029,0.035,-0.041,-0.036,105.0,105.0,103.0,13.4,1505.2,326.7,-0.7,1.8,2470.946,13.28,0.053,139.5
2022-05-25T07:07:03,42.805,6.029,0.048,-0.047,-0.03,105.0,105.0,103.0,13.4,1505.2,329.2,-0.7,1.8,2470.915,13.28,0.067,134.4
2022-05-25T07:10:03,42.805,6.029,0.041,-0.046,-0.021,106.0,105.0,103.0,13.4,1505.2,327.3,-0.8,1.8,2470.931,13.28,0.061,138.3
2022-05-25T07:13:03,42.805,6.029,0.037,-0.044,-0.04,106.0,105.0,104.0,13.3,1505.2,330.6,-0.8,1.8,2470.928,13.28,0.057,139.9
2022-05-25T07:16:03,42.805,6.029,0.024,-0.038,-0.014,106.0,105.0,103.0,13.4,1505.2,323.6,-0.8,1.8,2470.935,13.28,0.044,147.7
2022-05-25T07:19:03,42.805,6.029,0.018,-0.06,-0.024,107.0,104.0,104.0,13.4,1505.2,326.3,-0.7,1.8,2470.887,13.28,0.062,163.3
2022-05-25T07:22:03,42.805,6.029,0.044,-0.041,-0.002,106.0,105.0,104.0,13.4,1505.2,332.1,-0.7,1.8,2470.925,13.28,0.06,133.0
2022-05-25T07:25:03,42.805,6.029,0.024,-0.036,-0.021,107.0,105.0,103.0,13.4,1505.2,321.2,-0.7,1.8,2470.92,13.28,0.043,146.3
2022-05-25T07:28:03,42.805,6.029,0.038,-0.039,-0.025,107.0,106.0,103.0,13.4,1505.2,328.3,-0.8,1.8,2470.911,13.28,0.054,135.7
2022-05-25T07:31:03,42.805,6.029,0.048,-0.036,-0.014,106.0,105.0,103.0,13.3,1505.2,329.6,-0.8,1.8,2470.929,13.28,0.06,126.9
2022-05-25T07:34:03,42.805,6.029,0.045,-0.045,-0.011,107.0,106.0,104.0,13.4,1505.2,324.6,-0.7,1.8,2470.919,13.28,0.063,135.0
2022-05-25T07:37:03,42.805,6.029,0.037,-0.029,-0.033,106.0,105.0,105.0,13.4,1505.2,325.1,-0.8,1.8,2470.908,13.28,0.047,128.1
2022-05-25T07:40:03,42.805,6.029,0.011,-0.042,0.002,106.0,105.0,103.0,13.3,1505.2,330.8,-0.8,1.8,2470.883,13.28,0.043,165.3
2022-05-25T07:43:03,42.805,6.029,0.025,-0.042,-0.022,107.0,106.0,103.0,13.4,1505.2,326.4,-0.8,1.8,2470.882,13.28,0.048,149.2
2022-05-25T07:46:03,42.805,6.029,0.037,-0.056,-0.013,105.0,106.0,103.0,13.4,1505.2,329.0,-0.8,1.8,2470.929,13.28,0.067,146.5
2022-05-25T07:49:03,42.805,6.029,0.021,-0.037,-0.006,107.0,106.0,103.0,13.3,1505.2,321.4,-0.8,1.8,2470.878,13.28,0.042,150.4
2022-05-25T07:52:03,42.805,6.029,0.037,-0.044,-0.009,106.0,106.0,103.0,13.4,1505.2,332.8,-0.8,1.8,2470.869,13.28,0.057,139.9
2022-05-25T07:55:03,42.805,6.029,0.026,-0.028,0.005,105.0,106.0,103.0,13.4,1505.2,328.2,-0.7,1.8,2470.905,13.28,0.038,137.1
2022-05-25T07:58:03,42.805,6.029,0.034,-0.047,-0.029,106.0,106.0,103.0,13.4,1505.2,324.4,-0.7,1.8,2470.882,13.28,0.058,144.1
2022-05-25T08:04:03,42.805,6.029,0.037,-0.052,0.01,106.0,106.0,104.0,13.4,1505.2,323.5,-0.8,1.8,2470.902,13.28,0.063,144.6
2022-05-25T08:07:03,42.805,6.029,0.042,-0.039,-0.033,106.0,107.0,104.0,13.4,1505.2,325.5,-0.7,1.8,2470.898,13.28,0.057,132.9
2022-05-25T08:10:03,42.805,6.029,0.023,-0.044,-0.025,106.0,106.0,104.0,13.4,1505.2,332.0,-0.8,1.8,2470.931,13.28,0.049,152.4
2022-05-25T08:13:03,42.805,6.029,0.022,-0.035,-0.035,106.0,105.0,103.0,13.4,1505.2,327.1,-0.8,1.8,2470.908,13.28,0.041,147.8
2022-05-25T08:16:03,42.805,6.029,0.037,-0.048,-0.007,106.0,106.0,103.0,13.3,1505.2,327.7,-0.7,1.8,2470.911,13.28,0.06,142.4
2022-05-25T08:19:03,42.805,6.029,0.034,-0.031,-0.026,107.0,106.0,102.0,13.4,1505.2,327.9,-0.7,1.8,2470.875,13.28,0.046,132.4
2022-05-25T08:22:03,42.805,6.029,0.017,-0.041,-0.026,107.0,106.0,104.0,13.4,1505.2,323.2,-0.8,1.8,2470.898,13.28,0.044,157.5
2022-05-25T08:25:03,42.805,6.029,0.043,-0.048,-0.01,106.0,106.0,104.0,13.4,1505.2,321.7,-0.8,1.8,2470.868,13.28,0.064,138.1
2022-05-25T08:28:03,42.805,6.029,0.022,-0.026,0.009,107.0,106.0,104.0,13.3,1505.2,328.8,-0.8,1.8,2470.882,13.28,0.034,139.8
2022-05-25T08:31:03,42.805,6.029,0.049,-0.039,0.005,107.0,107.0,103.0,13.4,1505.2,327.9,-0.8,1.8,2470.9,13.28,0.062,128.5
2022-05-25T08:34:03,42.805,6.029,0.03,-0.04,-0.022,107.0,106.0,102.0,13.4,1505.2,331.3,-0.8,1.8,2470.879,13.28,0.05,143.1
2022-05-25T08:37:03,42.805,6.029,0.045,-0.036,-0.008,107.0,105.0,103.0,13.4,1505.2,325.2,-0.8,1.8,2470.844,13.28,0.057,128.7
2022-05-25T08:40:03,42.805,6.029,0.035,-0.048,-0.007,108.0,105.0,104.0,13.4,1505.2,329.0,-0.8,1.8,2470.893,13.28,0.059,143.9
2022-05-25T08:43:03,42.805,6.029,0.023,-0.024,0.0,108.0,107.0,104.0,13.4,1505.2,324.2,-0.8,1.8,2470.872,13.28,0.033,136.2
2022-05-25T08:46:03,42.805,6.029,0.041,-0.039,-0.025,108.0,105.0,103.0,13.3,1505.2,321.9,-0.8,1.8,2470.857,13.28,0.056,133.6
2022-05-25T08:49:03,42.805,6.029,0.03,-0.031,-0.014,107.0,105.0,103.0,13.4,1505.2,325.0,-0.8,1.8,2470.869,13.28,0.043,135.9
2022-05-25T08:52:03,42.805,6.029,0.042,-0.043,-0.01,106.0,106.0,103.0,13.4,1505.2,321.9,-0.8,1.8,2470.838,13.28,0.06,135.7
2022-05-25T08:55:03,42.805,6.029,0.019,-0.037,-0.016,106.0,105.0,104.0,13.4,1505.2,328.4,-0.8,1.8,2470.817,13.28,0.041,152.8
2022-05-25T08:58:03,42.805,6.029,0.033,-0.037,-0.001,107.0,106.0,103.0,13.3,1505.2,324.9,-0.8,1.8,2470.877,13.28,0.049,138.3
2022-05-25T09:04:03,42.805,6.029,0.038,-0.053,0.005,107.0,106.0,103.0,13.3,1505.2,332.3,-0.7,1.8,2470.862,13.28,0.065,144.4
2022-05-25T09:07:03,42.805,6.029,0.017,-0.025,0.013,105.0,106.0,103.0,13.4,1505.2,329.8,-0.8,1.8,2470.885,13.28,0.03,145.8
2022-05-25T09:10:03,42.805,6.029,0.019,-0.066,-0.03,106.0,105.0,103.0,13.4,1505.2,328.8,-0.8,1.8,2470.86,13.28,0.068,163.9
2022-05-25T09:13:03,42.805,6.029,0.02,-0.045,-0.038,106.0,105.0,103.0,13.3,1505.2,330.9,-0.8,1.8,2470.845,13.28,0.049,156.0
2022-05-25T09:16:03,42.805,6.029,0.032,-0.051,-0.043,106.0,107.0,103.0,13.3,1505.2,328.5,-0.8,1.8,2470.843,13.28,0.06,147.9
2022-05-25T09:19:03,42.805,6.029,0.025,-0.047,-0.028,106.0,105.0,102.0,13.3,1505.2,327.9,-0.8,1.8,2470.839,13.28,0.053,152.0
2022-05-25T09:22:03,42.805,6.029,0.046,-0.036,-0.003,106.0,105.0,104.0,13.3,1505.2,325.2,-0.8,1.8,2470.864,13.28,0.058,128.0
2022-05-25T09:25:03,42.805,6.029,0.026,-0.038,0.007,107.0,104.0,104.0,13.3,1505.2,329.2,-0.8,1.8,2470.852,13.28,0.046,145.6
2022-05-25T09:28:03,42.805,6.029,0.032,-0.035,-0.025,107.0,104.0,103.0,13.4,1505.2,321.4,-0.7,1.8,2470.848,13.28,0.047,137.6
2022-05-25T09:31:03,42.805,6.029,0.022,-0.035,-0.028,106.0,106.0,103.0,13.3,1505.2,323.4,-0.8,1.8,2470.824,13.28,0.041,147.8
2022-05-25T09:34:03,42.805,6.029,0.036,-0.049,-0.007,108.0,106.0,103.0,13.4,1505.2,324.4,-0.8,1.8,2470.814,13.28,0.06,143.7
2022-05-25T09:37:03,42.805,6.029,0.043,-0.032,0.0,106.0,106.0,103.0,13.3,1505.2,325.6,-0.8,1.8,2470.841,13.28,0.053,126.7
2022-05-25T09:40:03,42.805,6.029,0.046,-0.043,-0.034,106.0,105.0,104.0,13.3,1505.2,323.2,-0.7,1.8,2470.826,13.28,0.062,133.1
2022-05-25T09:43:03,42.805,6.029,0.035,-0.04,0.0,107.0,107.0,103.0,13.4,1505.2,329.0,-0.7,1.8,2470.814,13.28,0.053,138.8
2022-05-25T09:46:03,42.805,6.029,0.022,-0.057,-0.04,107.0,105.0,103.0,13.4,1505.2,328.8,-0.8,1.8,2470.843,13.28,0.061,158.9
2022-05-25T09:49:03,42.805,6.029,0.033,-0.039,-0.019,107.0,105.0,103.0,13.4,1505.2,321.0,-0.8,1.8,2470.826,13.28,0.051,139.8
2022-05-25T09:52:03,42.805,6.029,0.041,-0.013,-0.02,108.0,105.0,103.0,13.4,1505.2,321.0,-0.8,1.8,2470.812,13.28,0.043,107.6
2022-05-25T09:55:03,42.805,6.029,0.027,-0.035,-0.023,107.0,106.0,104.0,13.3,1505.2,330.0,-0.7,1.8,2470.834,13.28,0.044,142.3